Home   Weather   Pittsburgh   Past weeks
Flag for USA

Past Weather in Pittsburgh, Pennsylvania, USA — Yesterday and Last 2 Weeks

Now
62 °F

Sunny.


Feels Like: 62 °F
Forecast: 64 / 33 °F
Wind: 3 mph from East

Location: Allegheny County Airport

Current Time: Oct 19, 2019 at 6:42:52 pm

Latest Report: Oct 19, 2019 at 5:53 pm


Visibility: 10 mi

Pressure: 29.93 "Hg

Humidity: 44%

Dew Point: 40 °F

Location of PittsburghLocation

Past Weather in Pittsburgh — Graph

°F

Pittsburgh Temperature Yesterday

Maximum temperature yesterday: 55 °F (at 2:53 pm)
Minimum temperature yesterday: 39 °F (at 5:53 am)
Average temperature yesterday: 47 °F

High & Low Weather Summary for the Past Weeks

 TemperatureHumidityPressure
High74 °F (Oct 11, 3:53 pm)100% (Oct 7, 12:18 am)30.34 "Hg (Oct 7, 12:18 am)
Low36 °F (Oct 19, 6:53 am)32% (Oct 15, 4:53 pm)29.63 "Hg (Oct 16, 9:53 am)
Average54 °F74%30.07 "Hg
* Reported Oct 4 4:53 pm — Oct 19 4:53 pm, Pittsburgh. Weather by CustomWeather, © 2019

Note: Actual official high and low records may vary slightly from our data, if they occured in-between our weather recording intervals... More about our weather records

Advertising

Pittsburgh Weather History for the Previous 24 Hours

Scroll right to see more
 ConditionsComfort  
Time TempWeatherWind HumidityBarometerVisibility
4:53 pm
Sat, Oct 19
64 °FSunny.No wind41%29.93 "Hg10 mi
3:53 pm62 °FSunny.6 mph44%29.94 "Hg10 mi
2:53 pm61 °FSunny.6 mph48%29.96 "Hg10 mi
1:53 pm61 °FSunny.5 mph46%29.99 "Hg10 mi
12:53 pm58 °FSunny.6 mph54%30.03 "Hg10 mi
11:53 am53 °FSunny.6 mph61%30.03 "Hg10 mi
10:53 am49 °FSunny.6 mph71%30.04 "Hg10 mi
9:53 am44 °FSunny.3 mph79%30.06 "Hg10 mi
8:53 am38 °FFog.No wind97%30.07 "Hg6 mi
7:53 am36 °FFog.3 mph97%30.08 "Hg5 mi
6:53 am36 °FClear.6 mph97%30.08 "Hg7 mi
5:53 am37 °FClear.No wind96%30.07 "Hg8 mi
4:53 am37 °FFog.5 mph96%30.07 "Hg6 mi
4:27 am38 °FFog.No wind97%30.04 "Hg2 mi
3:53 am39 °FFog.No wind93%30.07 "Hg6 mi
2:53 am41 °FClear.No wind82%30.07 "Hg10 mi
1:53 am42 °FClear.No wind82%30.06 "Hg10 mi
12:53 am42 °FClear.3 mph82%30.04 "Hg10 mi
11:53 pm
Fri, Oct 18
44 °FClear.3 mph76%30.06 "Hg10 mi
10:53 pm46 °FClear.3 mph71%30.08 "Hg10 mi
9:53 pm47 °FClear.5 mph69%30.08 "Hg10 mi
8:53 pm49 °FClear.No wind64%30.07 "Hg10 mi
7:53 pm50 °FClear.No wind59%30.07 "Hg10 mi
6:53 pm51 °FClear.5 mph56%30.06 "Hg10 mi
Weather by CustomWeather, © 2019

See weather overview